Weather History for Fergus Falls, MN

Change the Weather History Date:

Saturday, February 18, 2012

  Actual Average Record
Temperature  
Mean Temperature 22 °F -  
Max Temperature 35 °F 25 °F 56 °F (1981)
Min Temperature 10 °F 6 °F -24 °F (1993)
Degree Days  
Heating Degree Days 42    
Moisture  
Dew Point 17 °F    
Average Humidity 76    
Maximum Humidity 100    
Minimum Humidity 56    
Precipitation  
Precipitation 0.00 in - - ()
Sea Level Pressure  
Sea Level Pressure 30.19 in    
Wind  
Wind Speed 3 mph (SSE)    
Max Wind Speed 12 mph    
Max Gust Speed -    
Visibility 10 miles    
Events      
Averages and records for this station are not official NWS values.
T = Trace of Precipitation, MM = Missing Value Source: NWS Daily Summary

Daily Weather History Graph

Daily Weather History Graph

Search for Another Location

Airport:

Trip Planner

Search our weather history database for the weather conditions in past years. The results will help you decide how hot, cold, wet, or windy it might be!

Date:

Astronomy

Feb. 18, 2012 Rise Set
Actual Time 7:23 AM CST 5:54 PM CST
Civil Twilight 6:52 AM CST 6:24 PM CST
Nautical Twilight 6:17 AM CST 6:59 PM CST
Astronomical Twilight 5:43 AM CST 7:34 PM CST
Moon 5:12 AM CST (2/18) 2:44 PM CST (2/18)
Length of Visible Light 11h 31m
Length of Day
10h 30m
Waning Crescent, 11% of the Moon is Illuminated
Feb 18
Waning Crescent
Feb 21
New
Feb 29
First Quarter
Mar 8
Full
Mar 14
Last Quarter

Hourly Weather History & Observations

Time (CST) Temp. Windchill Dew Point Humidity Pressure Visibility Wind Dir Wind Speed Gust Speed Precip Events Conditions
12:13 AM 21.2 °F 13.6 °F 15.8 °F 80% 30.23 in 10.0 mi North 5.8 mph - N/A   Overcast
12:32 AM 23.0 °F 17.0 °F 17.6 °F 80% 30.24 in 10.0 mi North 4.6 mph - N/A   Overcast
12:53 AM 23.0 °F - 15.8 °F 74% 30.24 in 10.0 mi Calm Calm - N/A   Overcast
1:14 AM 23.0 °F - 15.8 °F 74% 30.24 in 10.0 mi Calm Calm - N/A   Overcast
1:33 AM 21.2 °F - 15.8 °F 80% 30.24 in 10.0 mi Calm Calm - N/A   Mostly Cloudy
1:53 AM 21.2 °F - 15.8 °F 80% 30.24 in 10.0 mi Calm Calm - N/A   Scattered Clouds
2:13 AM 21.2 °F - 15.8 °F 80% 30.24 in 10.0 mi Calm Calm - N/A   Clear
2:33 AM 21.2 °F - 15.8 °F 80% 30.24 in 10.0 mi Calm Calm - N/A   Clear
2:53 AM 19.4 °F - 14.0 °F 80% 30.24 in 10.0 mi Calm Calm - N/A   Clear
3:14 AM 19.4 °F - 14.0 °F 80% 30.24 in 10.0 mi Calm Calm - N/A   Clear
3:33 AM 17.6 °F - 14.0 °F 86% 30.23 in 10.0 mi Calm Calm - N/A   Clear
3:53 AM 15.8 °F - 12.2 °F 86% 30.23 in 10.0 mi Calm Calm - N/A   Clear
4:13 AM 12.2 °F - 10.4 °F 92% 30.23 in 10.0 mi Calm Calm - N/A   Clear
4:33 AM 12.2 °F - 12.2 °F 100% 30.23 in 10.0 mi Calm Calm - N/A   Clear
4:53 AM 12.2 °F - 12.2 °F 100% 30.23 in 10.0 mi Calm Calm - N/A   Clear
5:13 AM 14.0 °F - 12.2 °F 93% 30.23 in 7.0 mi Calm Calm - N/A   Clear
5:32 AM 12.2 °F - 12.2 °F 100% 30.23 in 10.0 mi Calm Calm - N/A   Clear
5:53 AM 12.2 °F - 12.2 °F 100% 30.23 in 7.0 mi Calm Calm - N/A   Clear
6:13 AM 12.2 °F - 10.4 °F 92% 30.24 in 10.0 mi Calm Calm - N/A   Clear
6:32 AM 12.2 °F - 10.4 °F 92% 30.24 in 1.5 mi Calm Calm - N/A   Mostly Cloudy
6:53 AM 12.2 °F - 12.2 °F 100% 30.23 in 7.0 mi Calm Calm - N/A   Scattered Clouds
7:13 AM 12.2 °F - 12.2 °F 100% 30.23 in 7.0 mi Calm Calm - N/A   Clear
7:33 AM 10.4 °F - 10.4 °F 100% 30.23 in 10.0 mi Calm Calm - N/A   Clear
7:53 AM 12.2 °F - 10.4 °F 92% 30.23 in 10.0 mi Calm Calm - N/A   Clear
8:13 AM 14.0 °F - 12.2 °F 93% 30.23 in 10.0 mi Calm Calm - N/A   Clear
8:32 AM 15.8 °F - 14.0 °F 93% 30.23 in 10.0 mi Calm Calm - N/A   Clear
9:13 AM 17.6 °F - 15.8 °F 93% 30.23 in 10.0 mi Calm Calm - N/A   Clear
9:33 AM 19.4 °F - 17.6 °F 93% 30.23 in 10.0 mi Calm Calm - N/A   Clear
9:53 AM 21.2 °F - 19.4 °F 93% 30.24 in 10.0 mi Calm Calm - N/A   Clear
10:13 AM 21.2 °F - 21.2 °F 100% 30.24 in 10.0 mi Calm Calm - N/A   Clear
10:53 AM 26.6 °F 18.2 °F 19.4 °F 74% 30.23 in 10.0 mi South 8.1 mph - N/A   Clear
11:13 AM 26.6 °F 16.8 °F 19.4 °F 74% 30.23 in 10.0 mi South 10.4 mph - N/A   Clear
11:33 AM 28.4 °F 18.5 °F 19.4 °F 69% 30.23 in 10.0 mi South 11.5 mph - N/A   Clear
11:54 AM 28.4 °F 19.1 °F 19.4 °F 69% 30.23 in 10.0 mi South 10.4 mph - N/A   Clear
12:13 PM 30.2 °F 20.8 °F 19.4 °F 64% 30.22 in 10.0 mi South 11.5 mph - N/A   Clear
12:33 PM 30.2 °F 21.3 °F 21.2 °F 69% 30.20 in 10.0 mi South 10.4 mph - N/A   Clear
12:52 PM 32.0 °F 24.2 °F 21.2 °F 64% 30.19 in 10.0 mi South 9.2 mph - N/A   Clear
1:13 PM 33.8 °F 27.0 °F 21.2 °F 60% 30.17 in 10.0 mi South 8.1 mph - N/A   Clear
1:33 PM 33.8 °F 25.8 °F 21.2 °F 60% 30.16 in 10.0 mi South 10.4 mph - N/A   Clear
1:52 PM 33.8 °F 25.3 °F 21.2 °F 60% 30.16 in 10.0 mi South 11.5 mph - N/A   Clear
2:13 PM 33.8 °F 26.4 °F 21.2 °F 60% 30.15 in 10.0 mi SSW 9.2 mph - N/A   Clear
2:33 PM 35.6 °F 28.0 °F 21.2 °F 56% 30.14 in 10.0 mi South 10.4 mph - N/A   Clear
2:53 PM 35.6 °F 28.6 °F 21.2 °F 56% 30.13 in 10.0 mi South 9.2 mph - N/A   Clear
3:13 PM 35.6 °F 29.2 °F 21.2 °F 56% 30.13 in 10.0 mi South 8.1 mph - N/A   Clear
3:33 PM 35.6 °F 29.2 °F 21.2 °F 56% 30.12 in 10.0 mi South 8.1 mph - N/A   Clear
3:53 PM 35.6 °F 28.0 °F 21.2 °F 56% 30.12 in 10.0 mi South 10.4 mph - N/A   Clear
4:13 PM 35.6 °F 29.2 °F 21.2 °F 56% 30.11 in 10.0 mi South 8.1 mph - N/A   Clear
4:32 PM 35.6 °F 28.0 °F 21.2 °F 56% 30.11 in 10.0 mi South 10.4 mph - N/A   Clear
4:53 PM 35.6 °F 29.2 °F 21.2 °F 56% 30.10 in 10.0 mi SSE 8.1 mph - N/A   Clear
5:12 PM 35.6 °F 29.2 °F 21.2 °F 56% 30.10 in 10.0 mi SSE 8.1 mph - N/A   Clear
5:33 PM 33.8 °F 27.7 °F 21.2 °F 60% 30.09 in 10.0 mi SE 6.9 mph - N/A   Clear
5:53 PM 33.8 °F 28.6 °F 21.2 °F 60% 30.09 in 10.0 mi SE 5.8 mph - N/A   Clear
6:13 PM 32.0 °F 25.6 °F 21.2 °F 64% 30.09 in 10.0 mi SE 6.9 mph - N/A   Clear
7:13 PM 30.2 °F 22.6 °F 19.4 °F 64% 30.10 in 10.0 mi SE 8.1 mph - N/A   Clear
7:32 PM 30.2 °F 22.6 °F 19.4 °F 64% 30.10 in 10.0 mi SE 8.1 mph - N/A   Clear
7:53 PM 30.2 °F - 19.4 °F 64% 30.10 in 10.0 mi Calm Calm - N/A   Clear
8:13 PM 28.4 °F 19.7 °F 19.4 °F 69% 30.10 in 10.0 mi SE 9.2 mph - N/A   Clear
8:33 PM 28.4 °F 20.4 °F 19.4 °F 69% 30.10 in 10.0 mi SE 8.1 mph - N/A   Clear
8:53 PM 28.4 °F 19.7 °F 19.4 °F 69% 30.10 in 10.0 mi SE 9.2 mph - N/A   Clear
9:13 PM 28.4 °F 19.7 °F 19.4 °F 69% 30.11 in 10.0 mi SE 9.2 mph - N/A   Clear
9:33 PM 28.4 °F 19.7 °F 19.4 °F 69% 30.11 in 10.0 mi SE 9.2 mph - N/A   Clear
9:53 PM 28.4 °F 18.0 °F 19.4 °F 69% 30.10 in 10.0 mi SSE 12.7 mph - N/A   Clear
10:13 PM 28.4 °F 18.0 °F 19.4 °F 69% 30.10 in 10.0 mi SSE 12.7 mph - N/A   Clear
10:33 PM 26.6 °F 16.2 °F 19.4 °F 74% 30.10 in 10.0 mi SSE 11.5 mph - N/A   Clear
10:53 PM 26.6 °F 16.2 °F 19.4 °F 74% 30.09 in 10.0 mi SSE 11.5 mph - N/A   Clear
11:13 PM 26.6 °F 16.2 °F 19.4 °F 74% 30.09 in 10.0 mi SSE 11.5 mph - N/A   Clear
11:33 PM 26.6 °F 16.2 °F 17.6 °F 69% 30.09 in 10.0 mi SSE 11.5 mph - N/A   Clear
11:53 PM 24.8 °F 14.0 °F 17.6 °F 74% 30.08 in 10.0 mi SSE 11.5 mph - N/A   Clear